Regional Weather Roundup
Issued by NWS

Home | Current Version | Previous Version | Graphics & Text | Print | Product List | Glossary On
Versions: 1 2 3 4 5 6 7 8 9 10 11 12 13 14 15 16 17 18 19 20 21 22 23 24 25 26 27 28 29 30 31 32 33 34 35 36 37 38 39 40 41 42 43 44 45 46 47 48 49 50
000
ASUS43 KLMK 240402
RWRKY
KENTUCKY REGIONAL WEATHER ROUNDUP
NATIONAL WEATHER SERVICE LOUISVILLE KY
1200 AM EDT SUN MAY 24 2015

NOTE "FAIR" INDICATES FEW OR NO CLOUDS BELOW 12,000 FEET
WITH NO SIGNIFICANT WEATHER AND/OR OBSTRUCTIONS TO VISIBILITY.

KYZ001>023-026-027-061>063-070>075-240500-
WESTERN AND SOUTH CENTRAL KENTUCKY

CITY           SKY/WX    TMP DP  RH WIND       PRES   REMARKS
PADUCAH        CLEAR     65  56  72 SE3       30.17S
HENDERSON      CLOUDY    70  52  52 SE5       30.19F
OWENSBORO      MOCLDY    67  54  63 SE3       30.22F
HOPKINSVILLE   CLEAR     68  56  65 E3        30.21S
BOWLING GREEN  MOCLDY    66  55  67 CALM      30.24S
GLASGOW        NOT AVBL
$$

KYZ024-025-028>034-038-045-046-053-240500-
NORTH CENTRAL KENTUCKY

CITY           SKY/WX    TMP DP  RH WIND       PRES   REMARKS
LOUISVILLE/SDF PTCLDY    70  49  47 CALM      30.24F
LOUISVILLE/LOU PTCLDY    69  50  50 CALM      30.25F
FORT KNOX      PTCLDY    59  51  76 CALM      30.23F
$$

KYZ035>037-039>044-047>052-055>060-089>105-240500-
NORTHEAST KENTUCKY

CITY           SKY/WX    TMP DP  RH WIND       PRES   REMARKS
LEXINGTON      MOCLDY    66  47  50 E7        30.29S
COVINGTON      PTCLDY    64  47  53 SE5       30.28F
FRANKFORT      MOCLDY    61  50  67 CALM      30.26F
$$

KYZ054-064>069-076>088-106>120-240500-
SOUTHEAST KENTUCKY

CITY           SKY/WX    TMP DP  RH WIND       PRES   REMARKS
JACKSON        CLEAR     65  47  52 CALM      30.32S
LONDON         CLEAR     60  52  74 CALM      30.31S
SOMERSET       NOT AVBL
MIDDLESBORO    PTCLDY    58  54  87 CALM      30.33S
MONTICELLO     CLEAR     58  54  86 CALM      30.31F
$$




USA.gov is the U.S. government's official web portal to all federal, state and local government web resources and services.